Radioactive Concentration measured by Seawater Radiation Monitor near Fukushima Daiichi Nuclear Power Station
Date,Time,Cs137(Bq/L),Cs134(Bq/L),Total β(Bq/L)
2019/03/02,00:00,0.39,ND,18
2019/03/02,00:10,0.39,ND,21
2019/03/02,00:20,0.41,ND,22
2019/03/02,00:30,0.44,ND,21
2019/03/02,00:40,0.45,ND,20
2019/03/02,00:50,0.46,ND,18
2019/03/02,01:00,0.46,ND,19
2019/03/02,01:10,0.47,ND,17
2019/03/02,01:20,0.44,ND,14
2019/03/02,01:30,0.42,ND,12
2019/03/02,01:40,0.38,ND,12
2019/03/02,01:50,0.36,ND,16
2019/03/02,02:00,0.32,ND,16
2019/03/02,02:10,0.31,ND,16
2019/03/02,02:20,0.30,ND,17
2019/03/02,02:30,0.30,ND,23
2019/03/02,02:40,0.34,ND,22
2019/03/02,02:50,0.36,ND,21
2019/03/02,03:00,0.37,ND,22
2019/03/02,03:10,0.37,ND,23
2019/03/02,03:20,0.36,ND,22
2019/03/02,03:30,0.35,ND,19
2019/03/02,03:40,0.35,ND,17
2019/03/02,03:50,0.33,ND,17
2019/03/02,04:00,0.32,ND,14
2019/03/02,04:10,0.31,ND,13
2019/03/02,04:20,0.34,ND,14
2019/03/02,04:30,0.36,ND,13
2019/03/02,04:40,0.39,ND,15
2019/03/02,04:50,0.42,ND,14
2019/03/02,05:00,0.46,ND,16
2019/03/02,05:10,0.48,ND,16
2019/03/02,05:20,0.49,ND,19
2019/03/02,05:30,0.50,ND,19
2019/03/02,05:40,0.52,ND,20
2019/03/02,05:50,0.56,ND,19
2019/03/02,06:00,0.60,ND,16
2019/03/02,06:10,0.63,ND,15
2019/03/02,06:20,0.69,ND,12
2019/03/02,06:30,0.73,ND,12
2019/03/02,06:40,0.75,ND,11
2019/03/02,06:50,0.77,0.031,13
2019/03/02,07:00,0.77,0.036,14
2019/03/02,07:10,0.79,ND,15
2019/03/02,07:20,0.79,ND,17
2019/03/02,07:30,0.79,ND,18
2019/03/02,07:40,0.79,ND,16
2019/03/02,07:50,0.82,ND,14
2019/03/02,08:00,0.81,ND,15
2019/03/02,08:10,0.82,ND,16
2019/03/02,08:20,0.81,ND,12
2019/03/02,08:30,0.80,ND,13
2019/03/02,08:40,0.79,ND,17
2019/03/02,08:50,0.76,ND,15
2019/03/02,09:00,0.74,ND,17
2019/03/02,09:10,0.73,ND,12
2019/03/02,09:20,0.73,ND,15
2019/03/02,09:30,0.75,ND,12
2019/03/02,09:40,0.74,ND,11
2019/03/02,09:50,0.74,ND,14
2019/03/02,10:00,0.76,ND,13
2019/03/02,10:10,0.74,ND,17
2019/03/02,10:20,0.73,ND,17
2019/03/02,10:30,0.71,ND,19
2019/03/02,10:40,0.70,ND,15
2019/03/02,10:50,0.69,ND,13
2019/03/02,11:00,0.67,ND,12
2019/03/02,11:10,0.65,ND,12
2019/03/02,11:20,0.65,ND,11
2019/03/02,11:30,0.64,ND,12
2019/03/02,11:40,0.62,ND,17
2019/03/02,11:50,0.60,ND,19
2019/03/02,12:00,0.59,ND,20
2019/03/02,12:10,0.58,ND,18
2019/03/02,12:20,0.55,ND,16
2019/03/02,12:30,0.55,ND,17
2019/03/02,12:40,0.53,ND,16
2019/03/02,12:50,0.52,ND,15
2019/03/02,13:00,0.51,ND,17
2019/03/02,13:10,0.52,ND,19
2019/03/02,13:20,0.54,ND,22
2019/03/02,13:30,0.54,ND,20
2019/03/02,13:40,0.56,ND,18
2019/03/02,13:50,0.59,ND,17
2019/03/02,14:00,0.60,ND,18
2019/03/02,14:10,0.59,ND,15
2019/03/02,14:20,0.58,ND,15
2019/03/02,14:30,0.59,ND,17
2019/03/02,14:40,0.61,ND,21
2019/03/02,14:50,0.59,ND,22
2019/03/02,15:00,0.59,ND,19
2019/03/02,15:10,0.61,ND,19
2019/03/02,15:20,0.61,ND,21
2019/03/02,15:30,0.62,ND,21
2019/03/02,15:40,0.62,ND,18
2019/03/02,15:50,0.61,ND,18
2019/03/02,16:00,0.62,ND,18
2019/03/02,16:10,0.62,ND,16
2019/03/02,16:20,0.64,ND,12
2019/03/02,16:30,0.64,ND,14
2019/03/02,16:40,0.66,ND,15
2019/03/02,16:50,0.70,ND,15
2019/03/02,17:00,0.69,ND,16
2019/03/02,17:10,0.69,ND,16
2019/03/02,17:20,0.70,ND,16
2019/03/02,17:30,0.72,ND,14
2019/03/02,17:40,0.71,ND,16
2019/03/02,17:50,0.72,ND,16
2019/03/02,18:00,0.74,ND,16
2019/03/02,18:10,0.75,ND,20
2019/03/02,18:20,0.76,ND,21
2019/03/02,18:30,0.74,ND,20
2019/03/02,18:40,0.74,ND,19
2019/03/02,18:50,0.72,ND,19
2019/03/02,19:00,0.72,ND,17
2019/03/02,19:10,0.72,ND,15
2019/03/02,19:20,0.72,ND,16
2019/03/02,19:30,0.73,ND,16
2019/03/02,19:40,0.73,ND,12
2019/03/02,19:50,0.75,ND,11
2019/03/02,20:00,0.73,ND,13
2019/03/02,20:10,0.73,ND,10
2019/03/02,20:20,0.72,ND,ND
2019/03/02,20:30,0.72,ND,ND
2019/03/02,20:40,0.72,ND,10
2019/03/02,20:50,0.72,ND,11
2019/03/02,21:00,0.73,ND,10
2019/03/02,21:10,0.69,ND,12
2019/03/02,21:20,0.69,ND,15
2019/03/02,21:30,0.66,ND,12
2019/03/02,21:40,0.63,ND,12
2019/03/02,21:50,0.59,ND,9.9
2019/03/02,22:00,0.57,ND,8.8
2019/03/02,22:10,0.57,ND,10
2019/03/02,22:20,0.58,ND,ND
2019/03/02,22:30,0.56,ND,10
2019/03/02,22:40,0.55,ND,ND
2019/03/02,22:50,0.52,ND,9.9
2019/03/02,23:00,0.52,ND,11
2019/03/02,23:10,0.51,ND,9.2
2019/03/02,23:20,0.51,ND,12
2019/03/02,23:30,0.48,ND,12
2019/03/02,23:40,0.50,ND,14
2019/03/02,23:50,0.52,ND,13
